Location: Newark
(35.6799°N, 139.7636°E)
Time: 22:46:22
(UTC+00:00)

Vanguard 1 Rocket - Pass Details

Date: 12 December 2019
Orbit: 650 x 4226 km, 34.3° (Epoch: 20 January)

Event Time Altitude Azimuth Distance (km) Brightness Sun altitude
Rises 12:04:00 0° 253° (WSW) 7,939 12.6 -55.1°
Reaches altitude 10° 12:10:04 10° 252° (WSW) 6,496 12.0 -56.3°
Enters shadow 12:22:07 43° 248° (WSW) 3,385 10.2 -58.7°
